weather.gov     
National Weather Service

Terminal Aerodrome Forecast
NWS Homepage
This page is being discontinued on March 12, 2014.
The same data is available at this site. Please update your bookmarks.
Thank you, and we apologize for the inconvenience.
Please send an email to SR-SRH.Webmaster@noaa.gov with any concerns.


Current Version
Previous Version:    01  02  03  04  05  06  07  08  09  10  11  12  13  14  
[Printable]
390
FTUS41 KBOX 241512 AAA
TAFORH
TAF AMD
KORH 241512Z 2415/2512 32012G18KT P6SM BKN012 OVC040
     FM241800 32008KT P6SM SCT030 BKN045
     FM250100 32007KT P6SM BKN045
     FM250500 30006KT P6SM SCT070=


390
FTUS41 KBOX 241512 AAA
TAFORH
TAF AMD
KORH 241512Z 2415/2512 32012G18KT P6SM BKN012 OVC040
     FM241800 32008KT P6SM SCT030 BKN045
     FM250100 32007KT P6SM BKN045
     FM250500 30006KT P6SM SCT070=




U.S. Dept. of Commerce
NOAA National Weather Service
1325 East West Highway
Silver Spring, MD 20910
E-mail: w-nws.webmaster@noaa.gov
Page last modified: May 16, 2007
NATIONAL WEATHER SERVICE: for Safety, for Work, for Fun - FOR LIFE